Weerstation Grootegast  Weerstation Grootegast


15 daagse weersverwachting Lillehammer (NO)

  • Overzicht
  • Per uur
  • 15 dagen
  • Extra
  • Vergelijk
  • Kaarten
  • Dagkaart
  • Meer »
  • Info
  • Statistieken
  • Directe link
    Temp 6h Neerslag Wind  
 07:52     17:13    Daglengte: 9:21 Vandaag
01:00
-10°
 
1
07:00
-8°
 
1
13:00
-3°
 
1
19:00
-7°
 
1
 07:49     17:16    Daglengte: 9:27 Morgen
01:00
-10°
0.9 mm
2
warningclass
07:00
-7°
 
1
13:00
-3°
4.3 mm
1
warningclass
19:00
-7°
 
1
 07:46     17:19    Daglengte: 9:33 Dinsdag 20 Feb
01:00
-8°
2.9 mm
0
warningclass
07:00
-11°
 
0
13:00
-9°
41.8 mm
0
warningclass
19:00
-17°
41.8 mm
3
warningclass
Locatie info
Region: Oppland
Latitude: 61.1150°N
Longitude: 10.4636°E
210 masl
Postcode: 2609
Temp/Neerslag /Baro Onweer/DauwpuntSneeuw
    Temp Baro 1h Neerslag Dauwpunt Wind UV BewolkingSneeuw  
 07:52     17:13    Daglengte: 9:21 Vandaag
01:00
-10°
Voelt als: -11.3°
1023.4 hPa
21%
-10.8°
1
Windvlaag: -0.9 m/s
81%144 cm
02:00
-9°
Voelt als: -11.1°
1023.5 hPa
21%
-10.8°
1
Windvlaag: -0.7 m/s
81%144 cm
03:00
-9°
Voelt als: -10.9°
1023.4 hPa
21%
-10.7°
1
Windvlaag: -0.6 m/s
81%144 cm
04:00
-9°
Voelt als: -10.2°
1023.2 hPa
21%
-10.4°
1
Windvlaag: -0.9 m/s
81%144 cm
05:00
-9°
Voelt als: -10.1°
1022.7 hPa
21%
-10.1°
1
Windvlaag: -0.8 m/s
81%143 cm
06:00
-8°
Voelt als: -9.9°
1022.5 hPa
21%
-9.9°
1
Windvlaag: -0.6 m/s
81%143 cm
07:00
-8°
Voelt als: -9.8°
1022.2 hPa
21%
-9.7°
1
Windvlaag: -0.6 m/s
74%144 cm
08:00
-8°
Voelt als: -9.8°
1021.8 hPa
21%
-9.5°
1
Windvlaag: -0.6 m/s
56%144 cm
09:00
-7°
Voelt als: -8.7°
1021.6 hPa
21%
-8.8°
1
Windvlaag: -0.5 m/s
42%144 cm
10:00
-6°
Voelt als: -6.7°
1021.3 hPa
21%
-7.5°
1
Windvlaag: -0.3 m/s
24%144 cm
11:00
-5°
1020.8 hPa
21%
-6.6°
0
Windvlaag: -0.2 m/s
19%144 cm
12:00
-3°
Voelt als: -3.5°
1020.5 hPa
21%
-5.7°
0
Windvlaag: 0.5 m/s
17%144 cm
13:00
-3°
Voelt als: -3.0°
1020.2 hPa
21%
-4.9°
1
Windvlaag: 1.4 m/s
15%144 cm
14:00
-2°
Voelt als: -3.3°
1019.7 hPa
21%
-4.2°
1
Windvlaag: 1.7 m/s
13%143 cm
15:00
-2°
Voelt als: -2.4°
1019.6 hPa
21%
-3.7°
1
Windvlaag: 1.7 m/s
13%143 cm
16:00
-2°
Voelt als: -2.1°
1019.5 hPa
21%
-3.6°
1
Windvlaag: 1.6 m/s
13%143 cm
17:00
-3°
Voelt als: -3.1°
1019.6 hPa
21%
-3.9°
1
Windvlaag: 1.2 m/s
17%143 cm
18:00
-5°
Voelt als: -5.2°
1020.2 hPa
21%
-5.7°
1
Windvlaag: 0.7 m/s
30%143 cm
19:00
-7°
Voelt als: -7.1°
1020.5 hPa
21%
-7.4°
1
Windvlaag: -0.2 m/s
41%143 cm
20:00
-7°
Voelt als: -9.0°
1020.9 hPa 0.9 mm
21%
-8.3°
1
Windvlaag: -0.8 m/s
34%143 cm warningclass
21:00
-8°
Voelt als: -10.2°
1021.1 hPa
21%
-8.6°
1
Windvlaag: -0.6 m/s
27%143 cm
22:00
-8°
Voelt als: -10.7°
1021.5 hPa
21%
-9.2°
1
Windvlaag: -0.5 m/s
26%142 cm
23:00
-9°
Voelt als: -12.2°
1021.6 hPa
21%
-10.2°
2
Windvlaag: -0.4 m/s
24%142 cm
 07:49     17:16    Daglengte: 9:27 Morgen
00:00
-10°
Voelt als: -13.1°
1022.0 hPa
21%
-10.9°
2
Windvlaag: -0.3 m/s
17%142 cm
01:00
-10°
Voelt als: -13.9°
1022.3 hPa
21%
-11.4°
2
Windvlaag: -0.3 m/s
9%142 cm
02:00
-10°
Voelt als: -14.0°
1022.3 hPa
21%
-11.5°
2
Windvlaag: -0.6 m/s
12%142 cm
03:00
-10°
Voelt als: -13.6°
1022.6 hPa
21%
-11.3°
2
Windvlaag: -0.8 m/s
17%142 cm
04:00
-10°
Voelt als: -13.4°
1022.7 hPa
21%
-11.1°
2
Windvlaag: -0.8 m/s
35%142 cm
05:00
-9°
Voelt als: -12.6°
1022.9 hPa
21%
-10.4°
2
Windvlaag: -0.9 m/s
72%142 cm
06:00
-8°
Voelt als: -11.3°
1023.2 hPa
21%
-9.3°
2
Windvlaag: -0.6 m/s
77%141 cm
07:00
-7°
Voelt als: -9.8°
1023.5 hPa
21%
-8.6°
1
Windvlaag: -0.4 m/s
81%141 cm
08:00
-6°
Voelt als: -9.1°
1024.1 hPa
21%
-7.9°
1
Windvlaag: -0.1 m/s
81%141 cm
09:00
-6°
Voelt als: -8.4°
1024.5 hPa 1.3 mm
21%
-7.3°
1
Windvlaag: 0 m/s
81%142 cm warningclass
10:00
-5°
Voelt als: -7.5°
1024.9 hPa 1.4 mm
21%
-6.6°
1
Windvlaag: 0.3 m/s
81%142 cm warningclass
11:00
-4°
Voelt als: -6.2°
1025.1 hPa 1.6 mm
21%
-5.8°
1
Windvlaag: 0.3 m/s
81%142 cm warningclass
12:00
-3°
Voelt als: -4.7°
1025.2 hPa
21%
-5.1°
1
Windvlaag: 0.5 m/s
81%142 cm
13:00
-3°
Voelt als: -3.5°
1025.4 hPa
21%
-4.5°
1
Windvlaag: 0.5 m/s
81%142 cm
14:00
-2°
Voelt als: -2.8°
1025.4 hPa
21%
-4.4°
1
Windvlaag: 0.5 m/s
81%142 cm
15:00
-2°
Voelt als: -2.9°
1025.5 hPa
21%
-4.4°
1
Windvlaag: 1.2 m/s
81%142 cm
16:00
-3°
Voelt als: -3.4°
1025.7 hPa
21%
-4.5°
1
Windvlaag: 2 m/s
81%142 cm
17:00
-4°
Voelt als: -3.9°
1025.8 hPa
21%
-5.0°
1
Windvlaag: 2.2 m/s
81%142 cm
18:00
-5°
Voelt als: -5.3°
1026.1 hPa
21%
-5.8°
1
Windvlaag: 1.7 m/s
56%142 cm
19:00
-7°
Voelt als: -7.6°
1026.5 hPa
21%
-7.5°
1
Windvlaag: 1.2 m/s
54%142 cm
20:00
-7°
Voelt als: -7.0°
1026.8 hPa 2.9 mm
21%
-7.5°
1
Windvlaag: 1.3 m/s
64%142 cm warningclass
21:00
-6°
Voelt als: -8.6°
1027.2 hPa
21%
-7.3°
1
Windvlaag: 0.9 m/s
80%142 cm
22:00
-8°
Voelt als: -8.3°
1028.8 hPa
100%
-8.9°
1
Windvlaag: 0.8 m/s
100%142 cm
23:00
-8°
1029.1 hPa
100%
-8.7°
0
Windvlaag: 0.6 m/s
100%142 cm
 07:46     17:19    Daglengte: 9:33 Dinsdag 20 Feb
00:00
-8°
1029.2 hPa
100%
-8.8°
0
Windvlaag: 0.5 m/s
100%142 cm
01:00
-8°
Voelt als: -8.3°
1029.4 hPa
100%
-8.8°
0
Windvlaag: 0.9 m/s
100%142 cm
02:00
-9°
Voelt als: -9.2°
1029.4 hPa
100%
-8.8°
1
Windvlaag: 1.2 m/s
100%142 cm
03:00
-9°
Voelt als: -10.1°
1029.2 hPa
100%
-9.3°
1
Windvlaag: 1.6 m/s
100%142 cm
04:00
-9°
Voelt als: -10.1°
1029.1 hPa
100%
-9.3°
1
Windvlaag: 1.7 m/s
100%142 cm
05:00
-10°
Voelt als: -10.2°
1028.9 hPa
100%
-9.7°
1
Windvlaag: 1.5 m/s
100%142 cm
06:00
-10°
Voelt als: -10.2°
1029.1 hPa
100%
-10.2°
0
Windvlaag: 1.2 m/s
100%142 cm
07:00
-11°
1029.4 hPa
100%
-10.6°
0
Windvlaag: 1.1 m/s
100%142 cm
08:00
-15°
Voelt als: -19.2°
1027.6 hPa 6.9 mm
100%
-14.7°
2
Windvlaag: 1.8 m/s
100%142 cm warningclass
09:00
-12°
Voelt als: -15.6°
1027.8 hPa 7.0 mm
100%
-13.5°
2
Windvlaag: 2.5 m/s
100%141 cm warningclass
10:00
-11°
Voelt als: -13.8°
1027.9 hPa 7.0 mm
100%
-12.8°
1
Windvlaag: 2 m/s
88%141 cm warningclass
11:00
-11°
Voelt als: -12.7°
1027.8 hPa 7.0 mm
100%
-12.7°
1
Windvlaag: 1.8 m/s
26%141 cm warningclass
12:00
-10°
Voelt als: -11.4°
1027.6 hPa 7.0 mm
100%
-12.4°
1
Windvlaag: 1.9 m/s
2%141 cm warningclass
13:00
-9°
1027.3 hPa 7.0 mm
100%
-11.8°
0
Windvlaag: 2 m/s
0%141 cm warningclass
14:00
-9°
Voelt als: -9.5°
1026.9 hPa 7.0 mm
100%
-11.5°
1
Windvlaag: 1.6 m/s
0%141 cm warningclass
15:00
-9°
Voelt als: -11.0°
1026.5 hPa 7.0 mm
100%
-10.8°
1
Windvlaag: 1.7 m/s
1%141 cm warningclass
16:00
-13°
Voelt als: -16.5°
1026.1 hPa 7.0 mm
100%
-13.1°
1
Windvlaag: 1.4 m/s
7%140 cm warningclass
17:00
-17°
Voelt als: -20.5°
1025.8 hPa 7.0 mm
100%
-16.8°
1
Windvlaag: 1.5 m/s
51%140 cm warningclass
18:00
-17°
Voelt als: -23.4°
1025.5 hPa 7.0 mm
100%
-17.4°
2
Windvlaag: 2.4 m/s
77%140 cm warningclass
19:00
-17°
Voelt als: -23.8°
1025.1 hPa 7.0 mm
100%
-17.2°
3
Windvlaag: 2.8 m/s
34%140 cm warningclass
20:00
-17°
Voelt als: -21.4°
1024.8 hPa 7.0 mm
100%
-17.1°
2
Windvlaag: 2.1 m/s
19%140 cm warningclass
21:00
-17°
Voelt als: -18.3°
1024.8 hPa 7.0 mm
100%
-16.6°
1
Windvlaag: 1.2 m/s
29%140 cm warningclass
22:00
-15°
Voelt als: -17.1°
1024.7 hPa 7.0 mm
100%
-14.9°
1
Windvlaag: 1.2 m/s
40%140 cm warningclass
23:00
-16°
Voelt als: -18.1°
1024.5 hPa 7.0 mm
100%
-15.6°
1
Windvlaag: 1.2 m/s
37%140 cm warningclass
 07:43     17:22    Daglengte: 9:39 Woensdag 21 Feb
00:00
-15°
1024.2 hPa 7.0 mm
100%
-15.1°
0
Windvlaag: 0.7 m/s
48%140 cm warningclass
Temp/Neerslag /Baro Onweer/DauwpuntSneeuw
    Temp Baro Neerslag Dauwpunt Wind BewolkingSneeuw  
 07:52     17:13    Daglengte: 9:21 Vandaag
01:00
-10°
Voelt als: -11.3°
1023.4 hPa   -10.8°
1
81%144 cm
04:00
-9°
Voelt als: -10.2°
1023.2 hPa   -10.4°
1
81%144 cm
07:00
-8°
Voelt als: -9.8°
1022.2 hPa   -9.7°
1
74%144 cm
10:00
-6°
Voelt als: -6.7°
1021.3 hPa   -7.5°
1
24%144 cm
13:00
-3°
Voelt als: -3.0°
1020.2 hPa   -4.9°
1
15%144 cm
16:00
-2°
Voelt als: -2.1°
1019.5 hPa   -3.6°
1
13%143 cm
19:00
-7°
Voelt als: -7.1°
1020.5 hPa   -7.4°
1
41%143 cm
22:00
-8°
Voelt als: -10.7°
1021.5 hPa 0.9 mm -9.2°
1
26%142 cm warningclass
 07:49     17:16    Daglengte: 9:27 Morgen
01:00
-10°
Voelt als: -13.9°
1022.3 hPa   -11.4°
2
9%142 cm
04:00
-10°
Voelt als: -13.4°
1022.7 hPa   -11.1°
2
35%142 cm
07:00
-7°
Voelt als: -9.8°
1023.5 hPa   -8.6°
1
81%141 cm
10:00
-5°
Voelt als: -7.5°
1024.9 hPa 2.7 mm -6.6°
1
81%142 cm warningclass
13:00
-3°
Voelt als: -3.5°
1025.4 hPa 1.6 mm -4.5°
1
81%142 cm warningclass
16:00
-3°
Voelt als: -3.4°
1025.7 hPa   -4.5°
1
81%142 cm
19:00
-7°
Voelt als: -7.6°
1026.5 hPa   -7.5°
1
54%142 cm
22:00
-8°
Voelt als: -8.3°
1028.8 hPa 2.9 mm -8.9°
1
100%142 cm warningclass
 07:46     17:19    Daglengte: 9:33 Dinsdag 20 Feb
01:00
-8°
Voelt als: -8.3°
1029.4 hPa   -8.8°
0
100%142 cm
04:00
-9°
Voelt als: -10.1°
1029.1 hPa   -9.3°
1
100%142 cm
07:00
-11°
1029.4 hPa   -10.6°
0
100%142 cm
10:00
-11°
Voelt als: -13.8°
1027.9 hPa 20.8 mm -12.8°
1
88%141 cm warningclass
13:00
-9°
1027.3 hPa 20.9 mm -11.8°
0
0%141 cm warningclass
16:00
-13°
Voelt als: -16.5°
1026.1 hPa 20.9 mm -13.1°
1
7%140 cm warningclass
19:00
-17°
Voelt als: -23.8°
1025.1 hPa 20.9 mm -17.2°
3
34%140 cm warningclass
22:00
-15°
Voelt als: -17.1°
1024.7 hPa 20.9 mm -14.9°
1
40%140 cm warningclass
 07:43     17:22    Daglengte: 9:39 Woensdag 21 Feb
01:00
-11°
Voelt als: -11.5°
1023.7 hPa 20.9 mm -12.6°
1
68%140 cm warningclass
04:00
-8°
Voelt als: -9.5°
1027.0 hPa 0.1 mm -9.5°
1
1%
07:00
-7°
Voelt als: -8.1°
1026.8 hPa 0.4 mm -8.3°
1
1% warningclass
10:00
-6°
Voelt als: -6.7°
1026.9 hPa   -6.9°
1
1%
13:00
-2°
Voelt als: -3.1°
1025.7 hPa   -3.5°
1
1%
16:00
-1°
Voelt als: -2.9°
1025.1 hPa   -2.2°
1
1%
19:00
-5°
Voelt als: -8.9°
1027.6 hPa   -6.8°
2
1%
22:00
-7°
Voelt als: -10.9°
1030.3 hPa   -8.8°
3
0%
 07:40     17:24    Daglengte: 9:44 Donderdag 22 Feb
01:00
-8°
Voelt als: -12.4°
1031.5 hPa   -10.2°
2
0%
04:00
-10°
Voelt als: -13.7°
1032.3 hPa   -11.9°
2
0%
07:00
-11°
Voelt als: -14.9°
1032.9 hPa   -13.3°
2
0%
10:00
-8°
Voelt als: -10.5°
1032.7 hPa   -10.3°
1
0%
13:00
-4°
Voelt als: -4.5°
1030.9 hPa   -7.4°
1
0%
16:00
-6°
Voelt als: -7.8°
1029.8 hPa   -7.6°
1
0%
19:00
-12°
Voelt als: -13.6°
1031.5 hPa   -13.2°
1
0%
22:00
-14°
Voelt als: -15.4°
1032.9 hPa   -14.6°
1
0%
 07:37     17:27    Daglengte: 9:50 Vrijdag 23 Feb
01:00
-15°
Voelt als: -16.8°
1033.5 hPa   -15.8°
1
0%
04:00
-16°
Voelt als: -17.4°
1033.4 hPa   -17.3°
1
0%
07:00
-17°
Voelt als: -18.0°
1033.9 hPa   -18.2°
1
0%
10:00
-13°
Voelt als: -12.6°
1034.2 hPa   -14.5°
0
0%
13:00
-10°
Voelt als: -12.4°
1032.6 hPa   -12.0°
1
0%
16:00
-10°
Voelt als: -12.3°
1032.2 hPa   -10.8°
1
1%
19:00
-12°
Voelt als: -14.2°
1033.3 hPa 0.5 mm -12.2°
1
1% warningclass
22:00
-12°
Voelt als: -14.2°
1034.2 hPa 0.5 mm -12.1°
1
1% warningclass
 07:34     17:30    Daglengte: 9:56 Zaterdag 24 Feb
01:00
-12°
Voelt als: -14.5°
1034.5 hPa 0.6 mm -12.3°
1
1% warningclass
04:00
-11°
Voelt als: -14.7°
1034.1 hPa 0.5 mm -11.8°
1
1% warningclass
07:00
-11°
Voelt als: -16.0°
1034.8 hPa 2.4 mm -11.8°
2
1% warningclass
10:00
-11°
Voelt als: -16.6°
1036.1 hPa 2.0 mm -11.6°
3
1% warningclass
13:00
-10°
Voelt als: -16.0°
1037.6 hPa 3.5 mm -11.0°
3
1% warningclass
16:00
-10°
Voelt als: -15.2°
1039.0 hPa 0.4 mm -11.4°
3
1% warningclass
19:00
-16°
Voelt als: -18.9°
1042.1 hPa 0.4 mm -16.6°
1
1% warningclass
22:00
-17°
Voelt als: -22.7°
1044.4 hPa   -18.5°
2
0%
 07:31     17:33    Daglengte: 10:02 Zondag 25 Feb
01:00
-18°
Voelt als: -24.8°
1044.6 hPa   -19.7°
3
0%
07:00
-19°
Voelt als: -25.9°
1043.3 hPa   -20.4°
3
0%
13:00
-13°
Voelt als: -20.4°
1039.6 hPa   -15.6°
4
1%
19:00
-15°
Voelt als: -23.8°
1038.4 hPa   -18.2°
4
0%
 07:28     17:35    Daglengte: 10:07 Maandag 26 Feb
01:00
-13°
Voelt als: -20.7°
1034.0 hPa   -15.3°
5
1%
07:00
-10°
Voelt als: -18.6°
1027.7 hPa   -13.4°
6
1%
13:00
-6°
Voelt als: -13.0°
1023.2 hPa 1.0 mm -9.2°
5
1% warningclass
19:00
-10°
Voelt als: -16.3°
1024.8 hPa 0.7 mm -12.2°
3
1% warningclass
 07:25     17:38    Daglengte: 10:13 Dinsdag 27 Feb
01:00
-11°
Voelt als: -15.9°
1027.5 hPa 0.3 mm -12.0°
2
1% warningclass
07:00
-14°
Voelt als: -19.2°
1028.8 hPa 0.5 mm -15.0°
3
1% warningclass
13:00
-7°
Voelt als: -10.0°
1028.4 hPa 1.5 mm -7.9°
2
1% warningclass
19:00
-14°
Voelt als: -15.7°
1034.0 hPa 0.2 mm -14.4°
1
0%
 07:22     17:41    Daglengte: 10:19 Woensdag 28 Feb
01:00
-14°
Voelt als: -17.4°
1034.2 hPa 0.3 mm -14.7°
1
0%
07:00
-14°
Voelt als: -18.1°
1033.5 hPa 0.2 mm -15.2°
1
0%
13:00
-6°
Voelt als: -6.5°
1031.6 hPa 0.3 mm -7.6°
0
0%
19:00
-13°
Voelt als: -15.0°
1031.2 hPa 0.2 mm -14.0°
1
0%
 07:19     17:43    Daglengte: 10:24 Donderdag 01 Maa
01:00
-13°
Voelt als: -15.4°
1031.6 hPa 0.2 mm -13.3°
1
0%
07:00
-13°
Voelt als: -16.5°
1030.8 hPa 0.2 mm -13.6°
1
0%
13:00
-6°
Voelt als: -6.6°
1029.3 hPa 0.1 mm -7.4°
1
0%
19:00
-14°
Voelt als: -14.9°
1029.2 hPa 0.1 mm -14.1°
1
0%
 07:16     17:46    Daglengte: 10:30 Vrijdag 02 Maa
01:00
-13°
Voelt als: -14.8°
1029.5 hPa 0.2 mm -13.2°
1
0%
07:00
-12°
Voelt als: -14.4°
1027.9 hPa 0.4 mm -12.6°
1
0%
13:00
-5°
1025.4 hPa 0.3 mm -6.5°
1
0%
19:00
-11°
Voelt als: -11.1°
1024.1 hPa 0.4 mm -11.3°
1
0%
 07:13     17:49    Daglengte: 10:36 Zaterdag 03 Maa
01:00
-11°
Voelt als: -14.3°
1024.5 hPa 0.4 mm -11.8°
1
0%
07:00
-12°
Voelt als: -16.2°
1024.5 hPa 0.2 mm -13.0°
2
0%
13:00
-5°
Voelt als: -5.5°
1023.8 hPa 0.3 mm -6.3°
1
0%
19:00
-13°
Voelt als: -12.8°
1024.1 hPa 0.2 mm -13.0°
0
0%
 07:09     17:51    Daglengte: 10:42 Zondag 04 Maa
01:00
-13°
Voelt als: -14.1°
1024.6 hPa 0.4 mm -13.1°
1
0%
07:00
-12°
Voelt als: -14.6°
1022.9 hPa 0.3 mm -12.9°
1
0%
13:00
-5°
1019.8 hPa 0.2 mm -6.3°
0
0%
19:00
-10°
1017.5 hPa 0.3 mm -10.5°
0
0%
  CAPE Lifted Index Hail Supercell Tornado SRH 3km CL BTM PRES CL TOP PRES Swiss DWD icon SMHI TS
 07:52     17:13    Daglengte: 9:21 Vandaag
01:00 0 J/kg 3.8 K 0 % 0 % 0 % 0 m²/s² 0 0 4.91
02:00 1 J/kg 4.0 K 0 % 0 % 0 % 0 m²/s² 0 0 5.08
03:00 0 J/kg 4.4 K 0 % 0 % 0 % 0 m²/s² 0 0 5.09
04:00 0 J/kg 4.1 K 0 % 0 % 0 % 0 m²/s² 0 0 4.76
05:00 0 J/kg 3.2 K 0 % 0 % 0 % 0 m²/s² 0 0 4.13
06:00 0 J/kg 2.8 K 0 % 0 % 0 % 0 m²/s² 0 0 3.58
07:00 0 J/kg 2.8 K 0 % 0 % 0 % 0 m²/s² 0 0 3.43
08:00 0 J/kg 3.1 K 0 % 0 % 0 % 0 m²/s² 0 0 4.09
09:00 0 J/kg 2.7 K 0 % 0 % 0 % 0 m²/s² 0 0 3.6
10:00 0 J/kg 2.8 K 0 % 0 % 0 % 0 m²/s² 0 0 3.64
11:00 0 J/kg 3.4 K 0 % 0 % 0 % 0 m²/s² 0 0 4.21
12:00 0 J/kg 3.9 K 0 % 0 % 0 % 0 m²/s² 0 0 4.71
13:00 0 J/kg 4.4 K 0 % 0 % 0 % 0 m²/s² 0 0 5.39
14:00 0 J/kg 4.5 K 0 % 0 % 0 % 0 m²/s² 0 0 6
15:00 1 J/kg 4.4 K 0 % 0 % 0 % 0 m²/s² 0 0 5.6
16:00 0 J/kg 4.6 K 0 % 0 % 0 % 0 m²/s² 0 0 5.71
17:00 0 J/kg 5.2 K 0 % 0 % 0 % 0 m²/s² 0 0 6.34
18:00 0 J/kg 5.9 K 0 % 0 % 0 % 0 m²/s² 0 0 7.19
19:00 0 J/kg 6.2 K 0 % 0 % 0 % 0 m²/s² 0 0 7.34
20:00 0 J/kg 6.3 K 0 % 0 % 0 % 0 m²/s² 0 0 7.41
21:00 0 J/kg 6.3 K 0 % 0 % 0 % 0 m²/s² 0 0 7.5
22:00 0 J/kg 6.2 K 0 % 0 % 0 % 0 m²/s² 0 0 7.49
23:00 0 J/kg 6.1 K 0 % 0 % 0 % 0 m²/s² 0 0 7.24
 07:49     17:16    Daglengte: 9:27 Morgen
00:00 0 J/kg 6.0 K 0 % 0 % 0 % 0 m²/s² 0 0 7.11
01:00 0 J/kg 5.9 K 0 % 0 % 0 % 0 m²/s² 0 0 6.92
02:00 0 J/kg 5.7 K 0 % 0 % 0 % 0 m²/s² 0 0 6.72
03:00 0 J/kg 5.4 K 0 % 0 % 0 % 0 m²/s² 0 0 6.21
04:00 0 J/kg 5.0 K 0 % 0 % 0 % 0 m²/s² 0 0 5.66
05:00 0 J/kg 4.6 K 0 % 0 % 0 % 0 m²/s² 0 0 5.32
06:00 0 J/kg 4.5 K 0 % 0 % 0 % 0 m²/s² 0 0 5.22
07:00 0 J/kg 4.5 K 0 % 0 % 0 % 0 m²/s² 0 0 5.25
08:00 0 J/kg 4.8 K 0 % 0 % 0 % 0 m²/s² 0 0 5.55
09:00 0 J/kg 5.1 K 0 % 0 % 0 % 0 m²/s² 0 0 5.82
10:00 1 J/kg 5.5 K 0 % 0 % 0 % 0 m²/s² 0 0 6.28
11:00 1 J/kg 6.1 K 0 % 0 % 0 % 0 m²/s² 0 0 6.82
12:00 2 J/kg 6.3 K 0 % 0 % 0 % 0 m²/s² 0 0 7.35
13:00 4 J/kg 6.8 K 0 % 0 % 0 % 0 m²/s² 0 0 8.39
14:00 5 J/kg 7.8 K 0 % 0 % 0 % 0 m²/s² 0 0 9.54
15:00 6 J/kg 8.5 K 0 % 0 % 0 % 0 m²/s² 0 0 10.42
16:00 2 J/kg 9.1 K 0 % 0 % 0 % 0 m²/s² 0 0 11.2
17:00 0 J/kg 9.7 K 0 % 0 % 0 % 0 m²/s² 0 0 12.07
18:00 0 J/kg 10.1 K 0 % 0 % 0 % 0 m²/s² 0 0 12.59
19:00 0 J/kg 10.8 K 0 % 0 % 0 % 0 m²/s² 0 0 13.29
20:00 0 J/kg 11.7 K 0 % 0 % 0 % 0 m²/s² 0 0 14.28
21:00 0 J/kg 12.2 K 0 % 0 % 0 % 0 m²/s² 0 0 14.93
22:00 0 J/kg 12.7 K 0 % 0 % 0 % 0 m²/s² 0 0 15.58
23:00 0 J/kg 13.0 K 0 % 0 % 0 % 0 m²/s² 0 0 16.12
 07:46     17:19    Daglengte: 9:33 Dinsdag 20 Feb
00:00 0 J/kg 13.3 K 0 % 0 % 0 % 0 m²/s² 0 0 16.87
01:00 0 J/kg 13.6 K 0 % 0 % 0 % 0 m²/s² 0 0 17.56
02:00 0 J/kg 13.6 K 0 % 0 % 0 % 0 m²/s² 0 0 17.77
03:00 0 J/kg 13.7 K 0 % 0 % 0 % 0 m²/s² 0 0 18.08
04:00 0 J/kg 14.2 K 0 % 0 % 0 % 0 m²/s² 0 0 18.58
05:00 0 J/kg 14.4 K 0 % 0 % 0 % 0 m²/s² 0 0 18.66
06:00 0 J/kg 14.8 K 0 % 0 % 0 % 0 m²/s² 0 0 18.97
07:00 0 J/kg 15.1 K 0 % 0 % 0 % 0 m²/s² 0 0 19.03
08:00 0 J/kg 15.6 K 0 % 0 % 0 % 0 m²/s² 0 0 19.44
09:00 0 J/kg 16.0 K 0 % 0 % 0 % 0 m²/s² 0 0 19.63
10:00 0 J/kg 16.3 K 0 % 0 % 0 % 0 m²/s² 0 0 19.75
11:00 0 J/kg 16.3 K 0 % 0 % 0 % 0 m²/s² 0 0 19.84
12:00 0 J/kg 16.3 K 0 % 0 % 0 % 0 m²/s² 0 0 19.84
13:00 0 J/kg 16.4 K 0 % 0 % 0 % 0 m²/s² 0 0 19.94
14:00 0 J/kg 16.5 K 0 % 0 % 0 % 0 m²/s² 0 0 20.04
15:00 0 J/kg 16.5 K 0 % 0 % 0 % 0 m²/s² 0 0 20.04
16:00 0 J/kg 16.5 K 0 % 0 % 0 % 0 m²/s² 0 0 20.13
17:00 0 J/kg 16.0 K 0 % 0 % 0 % 0 m²/s² 0 0 19.63
18:00 0 J/kg 15.7 K 0 % 0 % 0 % 0 m²/s² 0 0 19.24
19:00 0 J/kg 15.4 K 0 % 0 % 0 % 0 m²/s² 0 0 18.88
20:00 0 J/kg 14.9 K 0 % 0 % 0 % 0 m²/s² 0 0 18.29
21:00 0 J/kg 14.3 K 0 % 0 % 0 % 0 m²/s² 0 0 17.27
22:00 0 J/kg 13.6 K 0 % 0 % 0 % 0 m²/s² 0 0 16
23:00 0 J/kg 13.0 K 0 % 0 % 0 % 0 m²/s² 0 0 15.61
 07:43     17:22    Daglengte: 9:39 Woensdag 21 Feb
00:00 0 J/kg 12.2 K 0 % 0 % 0 % 0 m²/s² 0 0 14.6
Temp Baro Wind Neerslag
  EWN Forecast EWN WRFDA DWD ICON FMI HIRLAM MET Norway GFS
 07:52     17:13    Daglengte: 9:21 Vandaag
01:00 -9.5° 1023.4 hPa 1.0 m/s 0.0 mm -6.5° 1020.2 hPa 0.3 m/s 0.1 mm -10.5° 1025.5 hPa 1.0 m/s 0.0 mm -9.7° 1023.5 hPa 0.1 m/s
04:00 -9.0° 1023.2 hPa 0.8 m/s 0.0 mm -6.6° 1020.0 hPa 0.2 m/s 0.6 mm -11.1° 1024.9 hPa 0.9 m/s 0.0 mm -8.9° 1022.8 hPa 0.2 m/s
07:00 -8.3° 1022.2 hPa 0.9 m/s 0.0 mm -6.2° 1019.1 hPa 1.0 m/s 1.6 mm -8.9° 1023.2 hPa 0.5 m/s 0.0 mm -8.7° 1022.2 hPa 0.3 m/s
10:00 -6.1° 1021.3 hPa 0.7 m/s 0.0 mm -5.2° 1018.3 hPa 0.6 m/s 4.4 mm -5.6° 1021.7 hPa 0.5 m/s 0.0 mm -5.5° 1021.6 hPa 0.2 m/s
13:00 -2.7° 1020.2 hPa 0.7 m/s 0.0 mm -2.4° 1018.2 hPa 0.8 m/s 5.3 mm -1.6° 1020.2 hPa 0.9 m/s 0.0 mm -2.5° 1020.7 hPa 0.2 m/s
16:00 -2.0° 1019.5 hPa 0.7 m/s 0.0 mm -1.3° 1017.5 hPa 0.4 m/s 5.6 mm -1.4° 1019.5 hPa 0.7 m/s 0.0 mm -2.9° 1020.5 hPa 0.1 m/s
19:00 -6.6° 1020.5 hPa 0.7 m/s 0.0 mm -3.7° 1018.1 hPa 0.6 m/s 6.8 mm -6.5° 1020.7 hPa 0.4 m/s 0.0 mm -6.0° 1022.0 hPa 1.2 m/s
22:00 -8.0° 1021.5 hPa 1.4 m/s 0.9 mm -2.6° 1018.5 hPa 2.0 m/s 7.6 mm -8.3° 1021.9 hPa 1.3 m/s 0.0 mm -7.4° 1023.0 hPa 1.9 m/s
 07:49     17:16    Daglengte: 9:27 Morgen
01:00 -10.2° 1022.3 hPa 1.8 m/s 0.0 mm -9.3° 1019.0 hPa 3.3 m/s 7.9 mm -10.0° 1022.7 hPa 1.3 m/s 0.0 mm -8.2° 1024.4 hPa 2.0 m/s
04:00 -9.8° 1022.7 hPa 1.8 m/s 0.0 mm -4.2° 1019.5 hPa 2.1 m/s 7.9 mm -10.1° 1023.1 hPa 1.4 m/s 0.0 mm -7.8° 1025.2 hPa 1.8 m/s
07:00 -7.2° 1023.5 hPa 1.5 m/s 0.0 mm -2.8° 1019.8 hPa 1.4 m/s 8.3 mm -7.1° 1023.9 hPa 1.4 m/s 0.0 mm -6.2° 1025.9 hPa 1.3 m/s
10:00 -5.1° 1024.9 hPa 1.4 m/s 2.7 mm -2.3° 1021.7 hPa 3.5 m/s 10.6 mm -4.7° 1025.1 hPa 1.1 m/s 0.0 mm -3.9° 1027.4 hPa 0.8 m/s
13:00 -2.6° 1025.4 hPa 0.9 m/s 1.6 mm -1.9° 1023.4 hPa 3.4 m/s 14.9 mm -1.6° 1025.2 hPa 0.6 m/s 0.0 mm -2.3° 1027.5 hPa 1.7 m/s
16:00 -3.0° 1025.7 hPa 0.7 m/s 0.0 mm -2.9° 1024.8 hPa 3.2 m/s 17.6 mm -0.7° 1025.2 hPa 0.4 m/s 0.0 mm -3.2° 1028.2 hPa 1.8 m/s
19:00 -6.7° 1026.5 hPa 0.8 m/s 0.0 mm -13.0° 1026.1 hPa 2.4 m/s 18.3 mm -1.2° 1025.6 hPa 0.6 m/s 0.0 mm -6.1° 1030.0 hPa 1.8 m/s
22:00 -7.8° 1028.8 hPa 0.7 m/s 2.9 mm -7.6° 1027.4 hPa 1.0 m/s 18.5 mm -8.7° 1031.1 hPa 1.1 m/s
 07:46     17:19    Daglengte: 9:33 Dinsdag 20 Feb
01:00 -8.3° 1029.4 hPa 0.4 m/s 0.0 mm -9.0° 1027.8 hPa 0.2 m/s 19.4 mm -10.1° 1031.7 hPa 0.6 m/s
04:00 -9.2° 1029.1 hPa 0.7 m/s 0.0 mm -11.0° 1027.4 hPa 0.9 m/s 20.2 mm -10.2° 1031.4 hPa 0.6 m/s
07:00 -10.6° 1029.4 hPa 0.5 m/s 0.0 mm -14.2° 1027.4 hPa 1.3 m/s 20.6 mm -10.3° 1031.2 hPa 0.8 m/s
10:00 -10.9° 1027.9 hPa 1.3 m/s 20.8 mm -10.9° 1027.9 hPa 1.3 m/s 20.8 mm -7.5° 1031.1 hPa 0.9 m/s
13:00 -9.3° 1027.3 hPa 0.3 m/s 20.9 mm -9.3° 1027.3 hPa 0.3 m/s 20.9 mm -5.2° 1029.7 hPa 1.1 m/s
16:00 -13.1° 1026.1 hPa 1.4 m/s 20.9 mm -13.1° 1026.1 hPa 1.4 m/s 20.9 mm -5.6° 1028.8 hPa 0.7 m/s
19:00 -17.2° 1025.1 hPa 2.7 m/s 20.9 mm -17.2° 1025.1 hPa 2.7 m/s 20.9 mm -10.7° 1028.9 hPa 0.8 m/s
22:00 -14.9° 1024.7 hPa 0.9 m/s 20.9 mm -14.9° 1024.7 hPa 0.9 m/s 20.9 mm -11.6° 1028.6 hPa 1.3 m/s
 07:43     17:22    Daglengte: 9:39 Woensdag 21 Feb
01:00 -11.1° 1023.7 hPa 0.6 m/s 20.9 mm -11.1° 1023.7 hPa 0.6 m/s 20.9 mm -10.3° 1027.9 hPa 1.2 m/s
04:00 -8.4° 1027.0 hPa 0.8 m/s 0.1 mm -8.4° 1027.0 hPa 0.8 m/s 0.1 mm
07:00 -7.3° 1026.8 hPa 0.8 m/s 0.4 mm -7.3° 1026.8 hPa 0.8 m/s 0.4 mm
10:00 -5.7° 1026.9 hPa 0.8 m/s 0.0 mm -5.7° 1026.9 hPa 0.9 m/s 0.0 mm
13:00 -1.7° 1025.7 hPa 1.2 m/s 0.0 mm -1.7° 1025.7 hPa 1.2 m/s 0.1 mm
16:00 -1.3° 1025.1 hPa 1.3 m/s 0.0 mm -1.3° 1025.1 hPa 1.3 m/s 0.0 mm
19:00 -5.0° 1027.6 hPa 2.5 m/s 0.0 mm -5.0° 1027.6 hPa 2.5 m/s 0.0 mm
22:00 -6.7° 1030.3 hPa 2.5 m/s 0.0 mm -6.7° 1030.3 hPa 2.5 m/s 0.0 mm
 07:40     17:24    Daglengte: 9:44 Donderdag 22 Feb
01:00 -8.1° 1031.5 hPa 2.3 m/s 0.0 mm -8.1° 1031.5 hPa 2.3 m/s 0.0 mm
04:00 -9.6° 1032.3 hPa 2.1 m/s 0.0 mm -9.6° 1032.3 hPa 2.1 m/s 0.0 mm
07:00 -10.7° 1032.9 hPa 2.0 m/s 0.0 mm -10.7° 1032.9 hPa 2.0 m/s 0.0 mm
10:00 -8.0° 1032.7 hPa 1.3 m/s 0.0 mm -8.0° 1032.7 hPa 1.3 m/s 0.0 mm
13:00 -4.5° 1030.9 hPa 0.6 m/s 0.0 mm -4.5° 1030.9 hPa 0.6 m/s 0.0 mm
16:00 -6.3° 1029.8 hPa 1.0 m/s 0.0 mm -6.3° 1029.8 hPa 1.0 m/s 0.0 mm
19:00 -12.2° 1031.5 hPa 0.8 m/s 0.0 mm -12.2° 1031.5 hPa 0.8 m/s 0.0 mm
22:00 -13.5° 1032.9 hPa 0.9 m/s 0.0 mm -13.5° 1032.9 hPa 0.9 m/s 0.0 mm
 07:37     17:27    Daglengte: 9:50 Vrijdag 23 Feb
01:00 -14.7° 1033.5 hPa 0.9 m/s 0.0 mm -14.7° 1033.5 hPa 0.9 m/s 0.0 mm
04:00 -15.9° 1033.4 hPa 0.7 m/s 0.0 mm -15.9° 1033.4 hPa 0.7 m/s 0.0 mm
07:00 -16.5° 1033.9 hPa 0.7 m/s 0.0 mm -16.5° 1033.9 hPa 0.7 m/s 0.0 mm
10:00 -12.6° 1034.2 hPa 0.4 m/s 0.0 mm -12.6° 1034.2 hPa 0.4 m/s 0.0 mm
13:00 -9.5° 1032.6 hPa 1.4 m/s 0.0 mm -9.5° 1032.6 hPa 1.4 m/s 0.0 mm
16:00 -9.5° 1032.2 hPa 1.4 m/s 0.0 mm -9.5° 1032.2 hPa 1.4 m/s 0.1 mm
19:00 -11.7° 1033.3 hPa 1.1 m/s 0.5 mm -11.7° 1033.3 hPa 1.2 m/s 0.5 mm
22:00 -11.7° 1034.2 hPa 1.2 m/s 0.5 mm -11.7° 1034.2 hPa 1.2 m/s 0.5 mm
 07:34     17:30    Daglengte: 9:56 Zaterdag 24 Feb
01:00 -11.9° 1034.5 hPa 1.2 m/s 0.6 mm -11.9° 1034.5 hPa 1.2 m/s 0.6 mm
04:00 -11.5° 1034.1 hPa 1.4 m/s 0.5 mm -11.5° 1034.1 hPa 1.4 m/s 0.5 mm
07:00 -11.4° 1034.8 hPa 2.2 m/s 2.4 mm -11.4° 1034.8 hPa 2.2 m/s 2.4 mm
10:00 -10.9° 1036.1 hPa 3.0 m/s 2.0 mm -10.9° 1036.1 hPa 3.0 m/s 2.0 mm
13:00 -10.0° 1037.6 hPa 3.4 m/s 3.5 mm -10.0° 1037.6 hPa 3.4 m/s 3.5 mm
16:00 -9.9° 1039.0 hPa 2.8 m/s 0.4 mm -9.9° 1039.0 hPa 2.8 m/s 0.4 mm
19:00 -15.6° 1042.1 hPa 1.3 m/s 0.4 mm -15.6° 1042.1 hPa 1.3 m/s 0.4 mm
22:00 -17.2° 1044.4 hPa 2.1 m/s 0.0 mm -17.2° 1044.4 hPa 2.1 m/s 0.0 mm
 07:31     17:33    Daglengte: 10:02 Zondag 25 Feb
01:00 -18.2° 1044.6 hPa 2.7 m/s 0.0 mm -18.2° 1044.6 hPa 2.7 m/s 0.0 mm
07:00 -18.7° 1043.3 hPa 3.0 m/s 0.0 mm -18.7° 1043.3 hPa 3.0 m/s 0.0 mm
13:00 -12.9° 1039.6 hPa 4.3 m/s 0.0 mm -12.9° 1039.6 hPa 4.3 m/s 0.0 mm
19:00 -15.5° 1038.4 hPa 4.5 m/s 0.0 mm -15.5° 1038.4 hPa 4.5 m/s 0.0 mm
 07:28     17:35    Daglengte: 10:07 Maandag 26 Feb
01:00 -12.7° 1034.0 hPa 4.9 m/s 0.0 mm -12.7° 1034.0 hPa 4.9 m/s 0.0 mm
07:00 -10.4° 1027.7 hPa 5.8 m/s 0.0 mm -10.4° 1027.7 hPa 5.8 m/s 0.0 mm
13:00 -6.4° 1023.2 hPa 5.1 m/s 0.7 mm -6.4° 1023.2 hPa 5.1 m/s 0.7 mm
19:00 -10.4° 1024.8 hPa 3.2 m/s 0.4 mm -10.4° 1024.8 hPa 3.2 m/s 0.4 mm
 07:25     17:38    Daglengte: 10:13 Dinsdag 27 Feb
01:00 -10.9° 1027.5 hPa 2.5 m/s 0.3 mm -10.9° 1027.5 hPa 2.5 m/s 0.3 mm
07:00 -13.5° 1028.8 hPa 2.6 m/s 0.2 mm -13.5° 1028.8 hPa 2.6 m/s 0.2 mm
13:00 -6.5° 1028.4 hPa 1.9 m/s 1.1 mm -6.5° 1028.4 hPa 1.9 m/s 1.1 mm
19:00 -13.7° 1034.0 hPa 0.9 m/s 0.2 mm
 07:22     17:41    Daglengte: 10:19 Woensdag 28 Feb
01:00 -13.9° 1034.2 hPa 1.4 m/s 0.3 mm
07:00 -14.4° 1033.5 hPa 1.5 m/s 0.2 mm
13:00 -6.5° 1031.6 hPa 0.5 m/s 0.3 mm
19:00 -13.5° 1031.2 hPa 0.8 m/s 0.2 mm
 07:19     17:43    Daglengte: 10:24 Donderdag 01 Maa
01:00 -12.8° 1031.6 hPa 1.1 m/s 0.2 mm
07:00 -13.1° 1030.8 hPa 1.4 m/s 0.2 mm
13:00 -6.3° 1029.3 hPa 0.6 m/s 0.1 mm
19:00 -13.8° 1029.2 hPa 0.7 m/s 0.1 mm
 07:16     17:46    Daglengte: 10:30 Vrijdag 02 Maa
01:00 -12.5° 1029.5 hPa 1.0 m/s 0.2 mm
07:00 -11.8° 1027.9 hPa 1.2 m/s 0.4 mm
13:00 -5.4° 1025.4 hPa 0.5 m/s 0.3 mm
19:00 -10.7° 1024.1 hPa 0.6 m/s 0.4 mm
 07:13     17:49    Daglengte: 10:36 Zaterdag 03 Maa
01:00 -11.2° 1024.5 hPa 1.4 m/s 0.4 mm
07:00 -12.5° 1024.5 hPa 1.6 m/s 0.2 mm
13:00 -5.2° 1023.8 hPa 0.7 m/s 0.3 mm
19:00 -12.8° 1024.1 hPa 0.2 m/s 0.2 mm
 07:09     17:51    Daglengte: 10:42 Zondag 04 Maa
01:00 -12.6° 1024.6 hPa 0.8 m/s 0.4 mm
07:00 -12.1° 1022.9 hPa 1.1 m/s 0.3 mm
13:00 -5.2° 1019.8 hPa 0.4 m/s 0.2 mm
19:00 -10.0° 1017.5 hPa 0.4 m/s 0.3 mm
FMI Hirlam - 7.5 km EWN WRFDA - 12 km DWD ICON - 7 km GFS - 25 km Basiskaart






























































Updatetijd (Europe/Amsterdam) Resolutie Lengte Stap
FMI Hirlam 00:00, 06:00, 12:00, 18:00 7.5 km 49h 1h
EWN WRFDA 20:00, 02:00, 08:00, 14:00 12 km 73h 1h
DWD ICON 23:45, 05:45, 11:45, 17:45 7 km 75h 1h
GFS 20:15, 02:15, 08:15, 14:15 25 km 237h 3h
30+ mm
25-30 mm
20-25 mm
15-20 mm
10-15 mm
6-10 mm
4-6 mm
2-4 mm
1-2 mm
0.5-1 mm
0.2-0.5 mm
0.1-0.2 mm
30+ mm
25-30 mm
20-25 mm
15-20 mm
10-15 mm
6-10 mm
4-6 mm
2-4 mm
1-2 mm
0.5-1 mm
0.2-0.5 mm
0.1-0.2 mm
Sneeuwval
Natte sneeuw
Hagel
Vorst
30+ mm
25-30 mm
20-25 mm
15-20 mm
10-15 mm
6-10 mm
4-6 mm
2-4 mm
1-2 mm
0.5-1 mm
0.2-0.5 mm
0.1-0.2 mm
Sneeuwval
Natte sneeuw
Hagel
Vorst
Onweer
50 mm
40 mm
30 mm
26 mm
22 mm
18 mm
14 mm
10 mm
9 mm
8 mm
7 mm
6 mm
5 mm
4.5 mm
4 mm
3.5 mm
3 mm
2.5 mm
2 mm
1.5 mm
1 mm
0.8 mm
0.6 mm
0.4 mm
0.2 mm
0.05 mm
35°
30°
25°
20°
15°
10°
-5°
-10°
-15°
-20°
-25°
-30°
-35°
33> m/s
29 m/s
25 m/s
21 m/s
17 m/s
14 m/s
11 m/s
8 m/s
5 m/s
3 m/s
0 m/s
2600 J/kg
2400 J/kg
2200 J/kg
2000 J/kg
1800 J/kg
1600 J/kg
1400 J/kg
1200 J/kg
1000 J/kg
800 J/kg
600 J/kg
400 J/kg
200 J/kg
70 dBZ
65 dBZ
60 dBZ
55 dBZ
50 dBZ
45 dBZ
40 dBZ
35 dBZ
30 dBZ
25 dBZ
20 dBZ
15 dBZ
10 dBZ
5 dBZ
-1 K
-2 K
-3 K
-4 K
-5 K
-6 K
-7 K
-8 K
-9 K
950 m²/s²
900 m²/s²
850 m²/s²
800 m²/s²
750 m²/s²
700 m²/s²
650 m²/s²
600 m²/s²
550 m²/s²
500 m²/s²
450 m²/s²
400 m²/s²
350 m²/s²
300 m²/s²
250 m²/s²
200 m²/s²
150 m²/s²
100 m²/s²
46 m/s
44 m/s
42 m/s
40 m/s
38 m/s
36 m/s
34 m/s
32 m/s
30 m/s
28 m/s
26 m/s
24 m/s
22 m/s
20 m/s
16 m/s
12 m/s
8 m/s
4 m/s
30 m/s
28 m/s
26 m/s
24 m/s
22 m/s
20 m/s
18 m/s
16 m/s
14 m/s
12 m/s
10 m/s
8 m/s
6 m/s
4 m/s
2 m/s
3.0
2.8
2.6
2.4
2.2
2.0
1.8
1.6
1.4
1.2
1.0
0.8
0.6
0.4
0.2
15
14
13
12
11
10
9
8
7
6
5
4
3
2
1
90%
80%
70%
60%
50%
40%
30%
20%
10%
42
40
38
36
34
32
30
28
26
24
22
20
18
16
14
12
90+ cm
80-90 cm
70-80 cm
60-70 cm
50-60 cm
40-50 cm
30-40 cm
20-30 cm
10-20 cm
1-10 cm
Sneeuwval
Natte sneeuw
Regen
>120 mm
115 mm
110 mm
105 mm
100 mm
95 mm
90 mm
85 mm
80 mm
75 mm
70 mm
65 mm
60 mm
55 mm
50 mm
45 mm
45 mm
40 mm
35 mm
30 mm
25 mm
20 mm
15 mm
10 mm
5 mm
0.1 mm
960 hPa
880 hPa
800 hPa
720 hPa
640 hPa
560 hPa
584 gpdm
568 gpdm
552 gpdm
536 gpdm
520 gpdm
504 gpdm
488 gpdm
Extreem zwaar Noodweer Kans op onweer
15% 15% 5% 50% 15%

Dag




Kaart






35°
30°
25°
20°
15°
10°
-5°
-10°
-15°
-20°
-25°
-30°
-35°
33> m/s
29 m/s
25 m/s
21 m/s
17 m/s
14 m/s
11 m/s
8 m/s
5 m/s
3 m/s
0 m/s
Extreem zwaar Noodweer Kans op onweer
15% 15% 5% 50% 15%
>120 mm
115 mm
110 mm
105 mm
100 mm
95 mm
90 mm
85 mm
80 mm
75 mm
70 mm
65 mm
60 mm
55 mm
50 mm
45 mm
45 mm
40 mm
35 mm
30 mm
25 mm
20 mm
15 mm
10 mm
5 mm
0.1 mm
Onweer risico kaarten - De groene en gele kleur geeft de kans op onweer aan binnen 40 km van een punt. Oranje, rood en violet hebben hetzelfde niveau zoals je het ziet op estofex.org waaronder ook de kans op hagel en supercells.

dBZ - dBZ staat voor decibel ten opzichte van Z.

Cape - Convective available potential energy (CAPE), is de totale hoeveelheid energie die een luchtpakketje nodig heeft om zover mogelijk te stijgen in de atmosfeer.

K Index - K-Index wordt berekend door de Vertical Totals (VT) en het verschil tussen de 850 hPa temperatuur en de 700 hPa dauwpuntsdepressie (Tdd 700) bij elkaar op te tellen.

TT Index - Convectie index wordt gebruikt voor het voorspellen van zware buien of onweer.

WRF - The Weather Research and Forecasting (WRF) is een volgende generatie mesoscale numeriek weersvoorspelling systeem ontworpen om zowel de operationele planning als het atmosferisch onderzoek te dienen. WRF is a cooperatie tussen het National Center for Atmospheric Research (NCAR), National Centers for Environmental Prediction (NCEP), Forecast Systems Laboratory (FSL), Air Force Weather Agency (AFWA), Naval Research Laboratory, University of Oklahoma, en de Federal Aviation Administration (FAA). Deze software draait op onze server.

WRFDA - Een meer geavanceerde versie van WRF

Arome - Het 2.5 km Arome model. Verzorgd door het Noors Meteorologisch Instituut.

MET Norway - De proff-default 4km meteorological data is een beste keus selectie van meteorologische modellen gebruikt door met.no die zijn geïnterpoleerd tot een gemeenschappelijke dataset. Verzorgd door het Noorse Meteorologisch Instituut.

SMHI - Het Hirlam model verzorgd door het Zweeds meteorologisch instituut.

FMI - Het Hirlam model verzorgd door het Fins meteorologisch instituut. Dekking alleen Finland.

GFS - Het Global Forecast Systeem (GFS) is een wereldwijd numerieke weersvoorspelling computermodel, gerund door NOAA.

GEM-GDPS - Het GEM-GDPS is a wereldwijd numeriek weersvoorspelling computermodel verzorgd door het Canadees Meteorologisch Centrum.

Credits/Info: Dank aan Stefan Gofferje van sääkeskus.fi voor enkele formules van GrADS. Info: Wikipedia.

Betrouwbaarheid van de verwachting

NB! 2015-03-29: Rebuilding the accuracy-test!

EWNACC
Day 1 Good forecasts

Dag 1 Tmax

Dag 2 Tmax

Geladen verwachtingen TOP 50

Totaal geladen verwachtingen:
Plaats Latitude Longitude Verwachtingen Plaats Latitude Longitude Verwachtingen